This demonstration page uses our WeatherBlox Daily Observations layout. Learn more.

Left ArrowRight Arrow

39.08367, -84.50855

Hourly Observations for January 16, 2015

Temp ( °F °C ) Dew Point ( °F °C ) Humidity (%) Winds ( mph kmh ) Pressure ( in mb ) Visibility ( mi km ) Precip ( " mm )
12:53 am 00:53 Clear 26 -3.3 21 -6.1 81 81 S 7 11 30.15 1021 10 16.0934 0 0
1:53 am 01:53 Clear 25 -3.9 21 -6.1 85 85 SSW 7 11 30.14 1021 10 16.0934 0 0
2:53 am 02:53 Mostly Clear 25 -3.9 22 -5.6 88 88 S 7 11 30.14 1021 8 12.87472 0 0
3:53 am 03:53 Clear 23 -5 21 -6.1 92 92 S 6 9 30.14 1021 7 11.26538 0 0
4:53 am 04:53 Mostly Clear 24 -4.4 22 -5.6 91 91 SSW 7 11 30.14 1021 7 11.26538 0 0
5:43 am 05:43 Mostly Cloudy 24 -4.4 22 -5.6 91 91 SSW 7 11 30.18 1022 7 11.26538 0 0
5:53 am 05:53 Mostly Cloudy with Mist and Fog 24 -4.4 22 -5.6 91 91 SSW 7 11 30.16 1022 6 9.65604 0 0
6:53 am 06:53 Cloudy with Mist and Fog 26 -3.3 24 -4.4 92 92 SSW 8 13 30.19 1022 6 9.65604 0 0
7:53 am 07:53 Cloudy with Mist and Fog 28 -2.2 25 -3.9 88 88 SSW 6 9 30.2 1023 6 9.65604 0 0
8:53 am 08:53 Cloudy with Mist and Fog 29 -1.7 26 -3.3 89 89 SW 7 11 30.23 1024 4 6.43736 0 0
9:53 am 09:53 Cloudy with Mist and Fog 30 -1.1 27 -2.8 88 88 W 5 7 30.25 1024 4 6.43736 0 0
10:53 am 10:53 Cloudy with Haze 32 0 27 -2.8 82 82 VRB 5 7 30.27 1025 5 8.0467 0 0
11:53 am 11:53 Mostly Cloudy with Haze 33 0.6 27 -2.8 78 78 SW 5 7 30.26 1025 5 8.0467 0 0
12:53 pm 12:53 Hazy 35 1.7 28 -2.2 76 76 S 7 11 30.23 1024 6 9.65604 0 0
1:53 pm 13:53 Mostly Sunny 38 3.3 28 -2.2 68 68 SSE 6 9 30.21 1023 7 11.26538 0 0
2:53 pm 14:53 Sunny 39 3.9 28 -2.2 65 65 S 6 9 30.19 1022 8 12.87472 0 0
3:53 pm 15:53 Sunny 40 4.4 27 -2.8 60 60 SSW 3 6 30.2 1023 9 14.48406 0 0
4:53 pm 16:53 Sunny 40 4.4 27 -2.8 60 60 Calm 30.21 1023 9 14.48406 0 0
5:53 pm 17:53 Clear 34 1.1 26 -3.3 73 73 Calm 30.22 1023 10 16.0934 0 0
6:53 pm 18:53 Clear 30 -1.1 25 -3.9 82 82 Calm 30.23 1024 9 14.48406 0 0
7:53 pm 19:53 Clear 26 -3.3 24 -4.4 92 92 Calm 30.24 1024 7 11.26538 0 0
8:53 pm 20:53 Clear with Mist and Fog 26 -3.3 24 -4.4 92 92 Calm 30.24 1024 6 9.65604 0 0
9:53 pm 21:53 Clear with Mist and Fog 25 -3.9 22 -5.6 88 88 Calm 30.24 1024 5 8.0467 0 0
10:53 pm 22:53 Clear with Mist and Fog 23 -5 22 -5.6 96 96 Calm 30.24 1024 3 4.82802 0 0
11:53 pm 23:53 Clear with Mist and Fog 24 -4.4 22 -5.6 91 91 WSW 3 6 30.23 1024 5 8.0467 0 0

Powered by AerisWeather